Year,Month,Day,Hour,Minute,Value (Times are PST for temperature in C)
2007,07,04,00,00,16.20
2007,07,04,00,01,16.20
2007,07,04,00,02,16.20
2007,07,04,00,03,16.20
2007,07,04,00,04,16.20
2007,07,04,00,05,16.20
2007,07,04,00,06,16.20
2007,07,04,00,07,16.20
2007,07,04,00,08,16.30
2007,07,04,00,09,16.30
2007,07,04,00,10,16.30
2007,07,04,00,11,16.30
2007,07,04,00,12,16.30
2007,07,04,00,13,16.30
2007,07,04,00,14,16.30
2007,07,04,00,15,16.30
2007,07,04,00,16,16.40
2007,07,04,00,17,16.40
2007,07,04,00,18,16.40
2007,07,04,00,19,16.40
2007,07,04,00,20,16.40
2007,07,04,00,21,16.40
2007,07,04,00,22,16.40
2007,07,04,00,23,16.50
2007,07,04,00,24,16.50
2007,07,04,00,25,16.50
2007,07,04,00,26,16.50
2007,07,04,00,27,16.50
2007,07,04,00,28,16.40
2007,07,04,00,29,16.50
2007,07,04,00,30,16.50
2007,07,04,00,31,16.50
2007,07,04,00,32,16.50
2007,07,04,00,33,16.50
2007,07,04,00,34,16.60
2007,07,04,00,35,16.60
2007,07,04,00,36,16.60
2007,07,04,00,37,16.60
2007,07,04,00,38,16.60
2007,07,04,00,39,16.60
2007,07,04,00,40,16.60
2007,07,04,00,41,16.60
2007,07,04,00,42,16.60
2007,07,04,00,43,16.60
2007,07,04,00,44,16.60
2007,07,04,00,45,16.60
2007,07,04,00,46,16.50
2007,07,04,00,47,16.50
2007,07,04,00,48,16.50
2007,07,04,00,49,16.50
2007,07,04,00,50,16.50
2007,07,04,00,51,16.40
2007,07,04,00,52,16.40
2007,07,04,00,53,16.40
2007,07,04,00,54,16.40
2007,07,04,00,55,16.40
2007,07,04,00,56,16.40
2007,07,04,00,57,16.40
2007,07,04,00,58,16.40
2007,07,04,00,59,16.40
2007,07,04,01,00,16.40
2007,07,04,01,01,16.40
2007,07,04,01,02,16.40
2007,07,04,01,03,16.40
2007,07,04,01,04,16.50
2007,07,04,01,05,16.50
2007,07,04,01,06,16.50
2007,07,04,01,07,16.50
2007,07,04,01,08,16.50
2007,07,04,01,09,16.50
2007,07,04,01,10,16.50
2007,07,04,01,11,16.50
2007,07,04,01,12,16.60
2007,07,04,01,13,16.60
2007,07,04,01,14,16.60
2007,07,04,01,15,16.60
2007,07,04,01,16,16.60
2007,07,04,01,17,16.60
2007,07,04,01,18,16.60
2007,07,04,01,19,16.60
2007,07,04,01,20,16.60
2007,07,04,01,21,16.60
2007,07,04,01,22,16.60
2007,07,04,01,23,16.60
2007,07,04,01,24,16.60
2007,07,04,01,25,16.60
2007,07,04,01,26,16.60
2007,07,04,01,27,16.60
2007,07,04,01,28,16.60
2007,07,04,01,29,16.60
2007,07,04,01,30,16.60
2007,07,04,01,31,16.70
2007,07,04,01,32,16.70
2007,07,04,01,33,16.70
2007,07,04,01,34,16.70
2007,07,04,01,35,16.70
2007,07,04,01,36,16.70
2007,07,04,01,37,16.70
2007,07,04,01,38,16.70
2007,07,04,01,39,16.60
2007,07,04,01,40,16.70
2007,07,04,01,41,16.70
2007,07,04,01,42,16.70
2007,07,04,01,43,16.70
2007,07,04,01,44,16.70
2007,07,04,01,45,16.70
2007,07,04,01,46,16.70
2007,07,04,01,47,16.70
2007,07,04,01,48,16.70
2007,07,04,01,49,16.70
2007,07,04,01,50,16.70
2007,07,04,01,51,16.70
2007,07,04,01,52,16.70
2007,07,04,01,53,16.70
2007,07,04,01,54,16.70
2007,07,04,01,55,16.70
2007,07,04,01,56,16.70
2007,07,04,01,57,16.70
2007,07,04,01,58,16.70
2007,07,04,01,59,16.60
2007,07,04,02,00,16.60
2007,07,04,02,01,16.60
2007,07,04,02,02,16.70
2007,07,04,02,03,16.70
2007,07,04,02,04,16.70
2007,07,04,02,05,16.70
2007,07,04,02,06,16.70
2007,07,04,02,07,16.70
2007,07,04,02,08,16.70
2007,07,04,02,09,16.70
2007,07,04,02,10,16.70
2007,07,04,02,11,16.70
2007,07,04,02,12,16.70
2007,07,04,02,13,16.70
2007,07,04,02,14,16.60
2007,07,04,02,15,16.60
2007,07,04,02,16,16.60
2007,07,04,02,17,16.60
2007,07,04,02,18,16.60
2007,07,04,02,19,16.60
2007,07,04,02,20,16.60
2007,07,04,02,21,16.60
2007,07,04,02,22,16.60
2007,07,04,02,23,16.60
2007,07,04,02,24,16.60
2007,07,04,02,25,16.60
2007,07,04,02,26,16.60
2007,07,04,02,27,16.60
2007,07,04,02,28,16.60
2007,07,04,02,29,16.60
2007,07,04,02,30,16.60
2007,07,04,02,31,16.60
2007,07,04,02,32,16.60
2007,07,04,02,33,16.50
2007,07,04,02,34,16.50
2007,07,04,02,35,16.50
2007,07,04,02,36,16.40
2007,07,04,02,37,16.50
2007,07,04,02,38,16.40
2007,07,04,02,39,16.40
2007,07,04,02,40,16.50
2007,07,04,02,41,16.50
2007,07,04,02,42,16.50
2007,07,04,02,43,16.50
2007,07,04,02,44,16.50
2007,07,04,02,45,16.60
2007,07,04,02,46,16.60
2007,07,04,02,47,16.60
2007,07,04,02,48,16.60
2007,07,04,02,49,16.60
2007,07,04,02,50,16.60
2007,07,04,02,51,16.50
2007,07,04,02,52,16.50
2007,07,04,02,53,16.50
2007,07,04,02,54,16.50
2007,07,04,02,55,16.50
2007,07,04,02,56,16.50
2007,07,04,02,57,16.50
2007,07,04,02,58,16.50
2007,07,04,02,59,16.50
2007,07,04,03,00,16.40
2007,07,04,03,01,16.40
2007,07,04,03,02,16.40
2007,07,04,03,03,16.50
2007,07,04,03,04,16.50
2007,07,04,03,05,16.50
2007,07,04,03,06,16.50
2007,07,04,03,07,16.50
2007,07,04,03,08,16.50
2007,07,04,03,09,16.50
2007,07,04,03,10,16.50
2007,07,04,03,11,16.50
2007,07,04,03,12,16.50
2007,07,04,03,13,16.50
2007,07,04,03,14,16.50
2007,07,04,03,15,16.50
2007,07,04,03,16,16.50
2007,07,04,03,17,16.50
2007,07,04,03,18,16.50
2007,07,04,03,19,16.50
2007,07,04,03,20,16.50
2007,07,04,03,21,16.40
2007,07,04,03,22,16.40
2007,07,04,03,23,16.40
2007,07,04,03,24,16.40
2007,07,04,03,25,16.40
2007,07,04,03,26,16.40
2007,07,04,03,27,16.40
2007,07,04,03,28,16.40
2007,07,04,03,29,16.40
2007,07,04,03,30,16.40
2007,07,04,03,31,16.40
2007,07,04,03,32,16.40
2007,07,04,03,33,16.40
2007,07,04,03,34,16.40
2007,07,04,03,35,16.50
2007,07,04,03,36,16.50
2007,07,04,03,37,16.50
2007,07,04,03,38,16.50
2007,07,04,03,39,16.50
2007,07,04,03,40,16.50
2007,07,04,03,41,16.50
2007,07,04,03,42,16.40
2007,07,04,03,43,16.40
2007,07,04,03,44,16.40
2007,07,04,03,45,16.40
2007,07,04,03,46,16.40
2007,07,04,03,47,16.40
2007,07,04,03,48,16.40
2007,07,04,03,49,16.40
2007,07,04,03,50,16.30
2007,07,04,03,51,16.30
2007,07,04,03,52,16.30
2007,07,04,03,53,16.30
2007,07,04,03,54,16.30
2007,07,04,03,55,16.30
2007,07,04,03,56,16.30
2007,07,04,03,57,16.30
2007,07,04,03,58,16.30
2007,07,04,03,59,16.30
2007,07,04,04,00,16.30
2007,07,04,04,01,16.30
2007,07,04,04,02,16.30
2007,07,04,04,03,16.30
2007,07,04,04,04,16.30
2007,07,04,04,05,16.30
2007,07,04,04,06,16.30
2007,07,04,04,07,16.30
2007,07,04,04,08,16.30
2007,07,04,04,09,16.30
2007,07,04,04,10,16.30
2007,07,04,04,11,16.30
2007,07,04,04,12,16.30
2007,07,04,04,13,16.30
2007,07,04,04,14,16.30
2007,07,04,04,15,16.30
2007,07,04,04,16,16.30
2007,07,04,04,17,16.30
2007,07,04,04,18,16.30
2007,07,04,04,19,16.30
2007,07,04,04,20,16.20
2007,07,04,04,21,16.20
2007,07,04,04,22,16.20
2007,07,04,04,23,16.20
2007,07,04,04,24,16.20
2007,07,04,04,25,16.20
2007,07,04,04,26,16.20
2007,07,04,04,27,16.20
2007,07,04,04,28,16.20
2007,07,04,04,29,16.20
2007,07,04,04,30,16.20
2007,07,04,04,31,16.20
2007,07,04,04,32,16.20
2007,07,04,04,33,16.20
2007,07,04,04,34,16.20
2007,07,04,04,35,16.20
2007,07,04,04,36,16.10
2007,07,04,04,37,16.10
2007,07,04,04,38,16.10
2007,07,04,04,39,16.10
2007,07,04,04,40,16.10
2007,07,04,04,41,16.10
2007,07,04,04,42,16.10
2007,07,04,04,43,16.10
2007,07,04,04,44,16.10
2007,07,04,04,45,16.10
2007,07,04,04,46,16.10
2007,07,04,04,47,16.00
2007,07,04,04,48,16.00
2007,07,04,04,49,16.00
2007,07,04,04,50,16.00
2007,07,04,04,51,16.00
2007,07,04,04,52,15.90
2007,07,04,04,53,15.90
2007,07,04,04,54,15.90
2007,07,04,04,55,15.90
2007,07,04,04,56,15.90
2007,07,04,04,57,15.90
2007,07,04,04,58,15.90
2007,07,04,04,59,15.90
2007,07,04,05,00,15.90
2007,07,04,05,01,15.90
2007,07,04,05,02,15.90
2007,07,04,05,03,15.90
2007,07,04,05,04,15.90
2007,07,04,05,05,15.90
2007,07,04,05,06,15.90
2007,07,04,05,07,15.90
2007,07,04,05,08,15.90
2007,07,04,05,09,15.80
2007,07,04,05,10,15.80
2007,07,04,05,11,15.80
2007,07,04,05,12,15.80
2007,07,04,05,13,15.80
2007,07,04,05,14,15.80
2007,07,04,05,15,15.80
2007,07,04,05,16,15.80
2007,07,04,05,17,15.80
2007,07,04,05,18,15.80
2007,07,04,05,19,15.80
2007,07,04,05,20,15.80
2007,07,04,05,21,15.80
2007,07,04,05,22,15.80
2007,07,04,05,23,15.80
2007,07,04,05,24,15.80
2007,07,04,05,25,15.80
2007,07,04,05,26,15.80
2007,07,04,05,27,15.80
2007,07,04,05,28,15.80
2007,07,04,05,29,15.80
2007,07,04,05,30,15.80
2007,07,04,05,31,15.80
2007,07,04,05,32,15.80
2007,07,04,05,33,15.80
2007,07,04,05,34,15.80
2007,07,04,05,35,15.80
2007,07,04,05,36,15.80
2007,07,04,05,37,15.80
2007,07,04,05,38,15.80
2007,07,04,05,39,15.80
2007,07,04,05,40,15.80
2007,07,04,05,41,15.80
2007,07,04,05,42,15.80
2007,07,04,05,43,15.80
2007,07,04,05,44,15.80
2007,07,04,05,45,15.80
2007,07,04,05,46,15.80
2007,07,04,05,47,15.80
2007,07,04,05,48,15.80
2007,07,04,05,49,15.80
2007,07,04,05,50,15.80
2007,07,04,05,51,15.80
2007,07,04,05,52,15.80
2007,07,04,05,53,15.80
2007,07,04,05,54,15.80
2007,07,04,05,55,15.90
2007,07,04,05,56,15.90
2007,07,04,05,57,15.90
2007,07,04,05,58,15.90
2007,07,04,05,59,15.90
2007,07,04,06,00,15.90
2007,07,04,06,01,15.90
2007,07,04,06,02,15.90
2007,07,04,06,03,15.90
2007,07,04,06,04,15.90
2007,07,04,06,05,15.90
2007,07,04,06,06,15.90
2007,07,04,06,07,15.90
2007,07,04,06,08,16.00
2007,07,04,06,09,16.00
2007,07,04,06,10,16.00
2007,07,04,06,11,16.00
2007,07,04,06,12,16.10
2007,07,04,06,13,16.10
2007,07,04,06,14,16.10
2007,07,04,06,15,16.10
2007,07,04,06,16,16.20
2007,07,04,06,17,16.20
2007,07,04,06,18,16.20
2007,07,04,06,19,16.20
2007,07,04,06,20,16.20
2007,07,04,06,21,16.30
2007,07,04,06,22,16.30
2007,07,04,06,23,16.30
2007,07,04,06,24,16.30
2007,07,04,06,25,16.30
2007,07,04,06,26,16.40
2007,07,04,06,27,16.40
2007,07,04,06,28,16.40
2007,07,04,06,29,16.40
2007,07,04,06,30,16.40
2007,07,04,06,31,16.40
2007,07,04,06,32,16.40
2007,07,04,06,33,16.40
2007,07,04,06,34,16.40
2007,07,04,06,35,16.50
2007,07,04,06,36,16.50
2007,07,04,06,37,16.50
2007,07,04,06,38,16.50
2007,07,04,06,39,16.50
2007,07,04,06,40,16.60
2007,07,04,06,41,16.60
2007,07,04,06,42,16.60
2007,07,04,06,43,16.60
2007,07,04,06,44,16.60
2007,07,04,06,45,16.60
2007,07,04,06,46,16.70
2007,07,04,06,47,16.70
2007,07,04,06,48,16.70
2007,07,04,06,49,16.70
2007,07,04,06,50,16.70
2007,07,04,06,51,16.70
2007,07,04,06,52,16.80
2007,07,04,06,53,16.80
2007,07,04,06,54,16.80
2007,07,04,06,55,16.80
2007,07,04,06,56,16.80
2007,07,04,06,57,16.90
2007,07,04,06,58,16.90
2007,07,04,06,59,16.90
2007,07,04,07,00,16.90
2007,07,04,07,01,16.90
2007,07,04,07,02,17.00
2007,07,04,07,03,17.00
2007,07,04,07,04,17.10
2007,07,04,07,05,17.10
2007,07,04,07,06,17.10
2007,07,04,07,07,17.10
2007,07,04,07,08,17.10
2007,07,04,07,09,17.10
2007,07,04,07,10,17.10
2007,07,04,07,11,17.10
2007,07,04,07,12,17.10
2007,07,04,07,13,17.10
2007,07,04,07,14,17.10
2007,07,04,07,15,17.10
2007,07,04,07,16,17.20
2007,07,04,07,17,17.20
2007,07,04,07,18,17.20
2007,07,04,07,19,17.20
2007,07,04,07,20,17.30
2007,07,04,07,21,17.30
2007,07,04,07,22,17.40
2007,07,04,07,23,17.40
2007,07,04,07,24,17.40
2007,07,04,07,25,17.40
2007,07,04,07,26,17.40
2007,07,04,07,27,17.50
2007,07,04,07,28,17.50
2007,07,04,07,29,17.60
2007,07,04,07,30,17.60
2007,07,04,07,31,17.60
2007,07,04,07,32,17.60
2007,07,04,07,33,17.70
2007,07,04,07,34,17.70
2007,07,04,07,35,17.70
2007,07,04,07,36,17.70
2007,07,04,07,37,17.70
2007,07,04,07,38,17.80
2007,07,04,07,39,17.80
2007,07,04,07,40,17.80
2007,07,04,07,41,17.80
2007,07,04,07,42,17.80
2007,07,04,07,43,17.80
2007,07,04,07,44,17.90
2007,07,04,07,45,17.90
2007,07,04,07,46,17.90
2007,07,04,07,47,17.90
2007,07,04,07,48,17.90
2007,07,04,07,49,18.00
2007,07,04,07,50,18.00
2007,07,04,07,51,18.00
2007,07,04,07,52,18.10
2007,07,04,07,53,18.10
2007,07,04,07,54,18.10
2007,07,04,07,55,18.10
2007,07,04,07,56,18.10
2007,07,04,07,57,18.10
2007,07,04,07,58,18.10
2007,07,04,07,59,18.10
2007,07,04,08,00,18.20
2007,07,04,08,01,18.20
2007,07,04,08,02,18.20
2007,07,04,08,03,18.20
2007,07,04,08,04,18.20
2007,07,04,08,05,18.20
2007,07,04,08,06,18.30
2007,07,04,08,07,18.30
2007,07,04,08,08,18.30
2007,07,04,08,09,18.40
2007,07,04,08,10,18.40
2007,07,04,08,11,18.50
2007,07,04,08,12,18.60
2007,07,04,08,13,18.70
2007,07,04,08,14,18.80
2007,07,04,08,15,18.80
2007,07,04,08,16,18.80
2007,07,04,08,17,18.80
2007,07,04,08,18,18.90
2007,07,04,08,19,18.90
2007,07,04,08,20,18.90
2007,07,04,08,21,19.00
2007,07,04,08,22,19.00
2007,07,04,08,23,19.10
2007,07,04,08,24,19.10
2007,07,04,08,25,19.10
2007,07,04,08,26,19.10
2007,07,04,08,27,19.10
2007,07,04,08,28,19.10
2007,07,04,08,29,19.10
2007,07,04,08,30,19.10
2007,07,04,08,31,19.10
2007,07,04,08,32,19.10
2007,07,04,08,33,19.10
2007,07,04,08,34,19.10
2007,07,04,08,35,19.20
2007,07,04,08,36,19.20
2007,07,04,08,37,19.20
2007,07,04,08,38,19.20
2007,07,04,08,39,19.30
2007,07,04,08,40,19.30
2007,07,04,08,41,19.30
2007,07,04,08,42,19.30
2007,07,04,08,43,19.30
2007,07,04,08,44,19.30
2007,07,04,08,45,19.30
2007,07,04,08,46,19.30
2007,07,04,08,47,19.30
2007,07,04,08,48,19.40
2007,07,04,08,49,19.40
2007,07,04,08,50,19.50
2007,07,04,08,51,19.50
2007,07,04,08,52,19.60
2007,07,04,08,53,19.70
2007,07,04,08,54,19.70
2007,07,04,08,55,19.70
2007,07,04,08,56,19.70
2007,07,04,08,57,19.70
2007,07,04,08,58,19.70
2007,07,04,08,59,19.70
2007,07,04,09,00,19.70
2007,07,04,09,01,19.70
2007,07,04,09,02,19.80
2007,07,04,09,03,19.80
2007,07,04,09,04,19.80
2007,07,04,09,05,19.80
2007,07,04,09,06,19.80
2007,07,04,09,07,19.80
2007,07,04,09,08,19.90
2007,07,04,09,09,19.90
2007,07,04,09,10,20.00
2007,07,04,09,11,20.00
2007,07,04,09,12,20.10
2007,07,04,09,13,20.20
2007,07,04,09,14,20.30
2007,07,04,09,15,20.40
2007,07,04,09,16,20.40
2007,07,04,09,17,20.50
2007,07,04,09,18,20.60
2007,07,04,09,19,20.60
2007,07,04,09,20,20.70
2007,07,04,09,21,20.70
2007,07,04,09,22,20.70
2007,07,04,09,23,20.70
2007,07,04,09,24,20.70
2007,07,04,09,25,20.70
2007,07,04,09,26,20.80
2007,07,04,09,27,20.80
2007,07,04,09,28,20.80
2007,07,04,09,29,20.80
2007,07,04,09,30,20.70
2007,07,04,09,31,20.70
2007,07,04,09,32,20.70
2007,07,04,09,33,20.70
2007,07,04,09,34,20.70
2007,07,04,09,35,20.70
2007,07,04,09,36,20.70
2007,07,04,09,37,20.80
2007,07,04,09,38,20.80
2007,07,04,09,39,20.80
2007,07,04,09,40,20.90
2007,07,04,09,41,20.90
2007,07,04,09,42,20.90
2007,07,04,09,43,21.00
2007,07,04,09,44,21.00
2007,07,04,09,45,21.10
2007,07,04,09,46,21.10
2007,07,04,09,47,21.10
2007,07,04,09,48,21.10
2007,07,04,09,49,21.20
2007,07,04,09,50,21.30
2007,07,04,09,51,21.30
2007,07,04,09,52,21.40
2007,07,04,09,53,21.40
2007,07,04,09,54,21.40
2007,07,04,09,55,21.40
2007,07,04,09,56,21.30
2007,07,04,09,57,21.30
2007,07,04,09,58,21.20
2007,07,04,09,59,21.10
2007,07,04,10,00,21.10
2007,07,04,10,01,21.00
2007,07,04,10,02,21.10
2007,07,04,10,03,21.10
2007,07,04,10,04,21.10
2007,07,04,10,05,21.10
2007,07,04,10,06,21.00
2007,07,04,10,07,20.90
2007,07,04,10,08,20.80
2007,07,04,10,09,20.60
2007,07,04,10,10,20.50
2007,07,04,10,11,20.40
2007,07,04,10,12,20.30
2007,07,04,10,13,20.30
2007,07,04,10,14,20.20
2007,07,04,10,15,20.20
2007,07,04,10,16,20.00
2007,07,04,10,17,20.00
2007,07,04,10,18,20.00
2007,07,04,10,19,19.90
2007,07,04,10,20,19.90
2007,07,04,10,21,19.80
2007,07,04,10,22,19.80
2007,07,04,10,23,19.80
2007,07,04,10,24,19.80
2007,07,04,10,25,19.80
2007,07,04,10,26,19.90
2007,07,04,10,27,19.90
2007,07,04,10,28,20.00
2007,07,04,10,29,20.00
2007,07,04,10,30,20.00
2007,07,04,10,31,20.00
2007,07,04,10,32,20.00
2007,07,04,10,33,20.00
2007,07,04,10,34,20.00
2007,07,04,10,35,20.00
2007,07,04,10,36,20.10
2007,07,04,10,37,20.10
2007,07,04,10,38,20.10
2007,07,04,10,39,20.20
2007,07,04,10,40,20.20
2007,07,04,10,41,20.30
2007,07,04,10,42,20.40
2007,07,04,10,43,20.40
2007,07,04,10,44,20.50
2007,07,04,10,45,20.60
2007,07,04,10,46,20.60
2007,07,04,10,47,20.70
2007,07,04,10,48,20.80
2007,07,04,10,49,20.90
2007,07,04,10,50,20.90
2007,07,04,10,51,20.90
2007,07,04,10,52,20.80
2007,07,04,10,53,20.80
2007,07,04,10,54,20.80
2007,07,04,10,55,20.80
2007,07,04,10,56,20.80
2007,07,04,10,57,20.70
2007,07,04,10,58,20.80
2007,07,04,10,59,20.80
2007,07,04,11,00,20.90
2007,07,04,11,01,21.10
2007,07,04,11,02,21.20
2007,07,04,11,03,21.30
2007,07,04,11,04,21.40
2007,07,04,11,05,21.40
2007,07,04,11,06,21.50
2007,07,04,11,07,21.50
2007,07,04,11,08,21.60
2007,07,04,11,09,21.70
2007,07,04,11,10,21.80
2007,07,04,11,11,21.80
2007,07,04,11,12,21.80
2007,07,04,11,13,21.90
2007,07,04,11,14,21.90
2007,07,04,11,15,21.90
2007,07,04,11,16,21.90
2007,07,04,11,17,21.90
2007,07,04,11,18,21.90
2007,07,04,11,19,21.90
2007,07,04,11,20,21.80
2007,07,04,11,21,21.80
2007,07,04,11,22,21.90
2007,07,04,11,23,21.90
2007,07,04,11,24,22.00
2007,07,04,11,25,22.00
2007,07,04,11,26,22.00
2007,07,04,11,27,22.10
2007,07,04,11,28,22.20
2007,07,04,11,29,22.20
2007,07,04,11,30,22.20
2007,07,04,11,31,22.20
2007,07,04,11,32,22.20
2007,07,04,11,33,22.20
2007,07,04,11,34,22.20
2007,07,04,11,35,22.20
2007,07,04,11,36,22.20
2007,07,04,11,37,22.20
2007,07,04,11,38,22.20
2007,07,04,11,39,22.30
2007,07,04,11,40,22.30
2007,07,04,11,41,22.30
2007,07,04,11,42,22.30
2007,07,04,11,43,22.30
2007,07,04,11,44,22.20
2007,07,04,11,45,22.00
2007,07,04,11,46,21.90
2007,07,04,11,47,21.90
2007,07,04,11,48,21.90
2007,07,04,11,49,21.90
2007,07,04,11,50,21.90
2007,07,04,11,51,21.90
2007,07,04,11,52,21.90
2007,07,04,11,53,21.90
2007,07,04,11,54,22.00
2007,07,04,11,55,22.00
2007,07,04,11,56,22.00
2007,07,04,11,57,22.00
2007,07,04,11,58,22.00
2007,07,04,11,59,22.00
2007,07,04,12,00,22.10
2007,07,04,12,01,22.20
2007,07,04,12,02,22.30
2007,07,04,12,03,22.40
2007,07,04,12,04,22.60
2007,07,04,12,05,22.70
2007,07,04,12,06,22.70
2007,07,04,12,07,22.70
2007,07,04,12,08,22.70
2007,07,04,12,09,22.60
2007,07,04,12,10,22.60
2007,07,04,12,11,22.60
2007,07,04,12,12,22.60
2007,07,04,12,13,22.60
2007,07,04,12,14,22.70
2007,07,04,12,15,22.70
2007,07,04,12,16,22.60
2007,07,04,12,17,22.40
2007,07,04,12,18,22.30
2007,07,04,12,19,22.20
2007,07,04,12,20,22.20
2007,07,04,12,21,22.30
2007,07,04,12,22,22.30
2007,07,04,12,23,22.40
2007,07,04,12,24,22.40
2007,07,04,12,25,22.50
2007,07,04,12,26,22.50
2007,07,04,12,27,22.50
2007,07,04,12,28,22.40
2007,07,04,12,29,22.40
2007,07,04,12,30,22.40
2007,07,04,12,31,22.40
2007,07,04,12,32,22.50
2007,07,04,12,33,22.60
2007,07,04,12,34,22.70
2007,07,04,12,35,22.70
2007,07,04,12,36,22.80
2007,07,04,12,37,22.80
2007,07,04,12,38,22.80
2007,07,04,12,39,22.90
2007,07,04,12,40,22.90
2007,07,04,12,41,22.90
2007,07,04,12,42,22.90
2007,07,04,12,43,22.90
2007,07,04,12,44,23.00
2007,07,04,12,45,23.00
2007,07,04,12,46,22.90
2007,07,04,12,47,22.80
2007,07,04,12,48,22.80
2007,07,04,12,49,22.80
2007,07,04,12,50,22.80
2007,07,04,12,51,22.80
2007,07,04,12,52,22.80
2007,07,04,12,53,22.80
2007,07,04,12,54,22.90
2007,07,04,12,55,22.90
2007,07,04,12,56,23.00
2007,07,04,12,57,23.10
2007,07,04,12,58,23.00
2007,07,04,12,59,23.00
2007,07,04,13,00,22.90
2007,07,04,13,01,22.90
2007,07,04,13,02,22.90
2007,07,04,13,03,22.80
2007,07,04,13,04,22.80
2007,07,04,13,05,22.70
2007,07,04,13,06,22.60
2007,07,04,13,07,22.50
2007,07,04,13,08,22.40
2007,07,04,13,09,22.40
2007,07,04,13,10,22.50
2007,07,04,13,11,22.50
2007,07,04,13,12,22.50
2007,07,04,13,13,22.40
2007,07,04,13,14,22.40
2007,07,04,13,15,22.40
2007,07,04,13,16,22.40
2007,07,04,13,17,22.50
2007,07,04,13,18,22.60
2007,07,04,13,19,22.70
2007,07,04,13,20,22.80
2007,07,04,13,21,22.90
2007,07,04,13,22,23.00
2007,07,04,13,23,23.10
2007,07,04,13,24,23.20
2007,07,04,13,25,23.20
2007,07,04,13,26,23.30
2007,07,04,13,27,23.30
2007,07,04,13,28,23.20
2007,07,04,13,29,23.10
2007,07,04,13,30,23.00
2007,07,04,13,31,22.90
2007,07,04,13,32,22.80
2007,07,04,13,33,22.90
2007,07,04,13,34,23.00
2007,07,04,13,35,23.10
2007,07,04,13,36,23.20
2007,07,04,13,37,23.40
2007,07,04,13,38,23.50
2007,07,04,13,39,23.50
2007,07,04,13,40,23.60
2007,07,04,13,41,23.70
2007,07,04,13,42,23.80
2007,07,04,13,43,23.90
2007,07,04,13,44,24.00
2007,07,04,13,45,24.10
2007,07,04,13,46,24.10
2007,07,04,13,47,24.20
2007,07,04,13,48,24.30
2007,07,04,13,49,24.40
2007,07,04,13,50,24.40
2007,07,04,13,51,24.50
2007,07,04,13,52,24.50
2007,07,04,13,53,24.60
2007,07,04,13,54,24.60
2007,07,04,13,55,24.50
2007,07,04,13,56,24.50
2007,07,04,13,57,24.60
2007,07,04,13,58,24.50
2007,07,04,13,59,24.50
2007,07,04,14,00,24.40
2007,07,04,14,01,24.40
2007,07,04,14,02,24.40
2007,07,04,14,03,24.40
2007,07,04,14,04,24.40
2007,07,04,14,05,24.50
2007,07,04,14,06,24.60
2007,07,04,14,07,24.50
2007,07,04,14,08,24.40
2007,07,04,14,09,24.40
2007,07,04,14,10,24.30
2007,07,04,14,11,24.30
2007,07,04,14,12,24.30
2007,07,04,14,13,24.20
2007,07,04,14,14,24.20
2007,07,04,14,15,24.10
2007,07,04,14,16,24.10
2007,07,04,14,17,24.10
2007,07,04,14,18,24.10
2007,07,04,14,19,24.00
2007,07,04,14,20,24.00
2007,07,04,14,21,23.90
2007,07,04,14,22,23.90
2007,07,04,14,23,23.90
2007,07,04,14,24,23.90
2007,07,04,14,25,24.00
2007,07,04,14,26,24.10
2007,07,04,14,27,24.20
2007,07,04,14,28,24.30
2007,07,04,14,29,24.30
2007,07,04,14,30,24.30
2007,07,04,14,31,24.30
2007,07,04,14,32,24.40
2007,07,04,14,33,24.50
2007,07,04,14,34,24.50
2007,07,04,14,35,24.50
2007,07,04,14,36,24.60
2007,07,04,14,37,24.60
2007,07,04,14,38,24.60
2007,07,04,14,39,24.50
2007,07,04,14,40,24.40
2007,07,04,14,41,24.40
2007,07,04,14,42,24.40
2007,07,04,14,43,24.50
2007,07,04,14,44,24.60
2007,07,04,14,45,24.60
2007,07,04,14,46,24.70
2007,07,04,14,47,24.70
2007,07,04,14,48,24.60
2007,07,04,14,49,24.50
2007,07,04,14,50,24.40
2007,07,04,14,51,24.30
2007,07,04,14,52,24.20
2007,07,04,14,53,24.00
2007,07,04,14,54,23.90
2007,07,04,14,55,23.80
2007,07,04,14,56,23.70
2007,07,04,14,57,23.60
2007,07,04,14,58,23.50
2007,07,04,14,59,23.50
2007,07,04,15,00,23.50
2007,07,04,15,01,23.50
2007,07,04,15,02,23.60
2007,07,04,15,03,23.70
2007,07,04,15,04,23.80
2007,07,04,15,05,23.80
2007,07,04,15,06,23.90
2007,07,04,15,07,23.90
2007,07,04,15,08,23.90
2007,07,04,15,09,23.90
2007,07,04,15,10,23.80
2007,07,04,15,11,23.80
2007,07,04,15,12,23.80
2007,07,04,15,13,23.70
2007,07,04,15,14,23.70
2007,07,04,15,15,23.60
2007,07,04,15,16,23.60
2007,07,04,15,17,23.50
2007,07,04,15,18,23.50
2007,07,04,15,19,23.50
2007,07,04,15,20,23.40
2007,07,04,15,21,23.40
2007,07,04,15,22,23.50
2007,07,04,15,23,23.50
2007,07,04,15,24,23.50
2007,07,04,15,25,23.60
2007,07,04,15,26,23.60
2007,07,04,15,27,23.50
2007,07,04,15,28,23.60
2007,07,04,15,29,23.70
2007,07,04,15,30,23.80
2007,07,04,15,31,23.90
2007,07,04,15,32,24.00
2007,07,04,15,33,24.20
2007,07,04,15,34,24.20
2007,07,04,15,35,24.20
2007,07,04,15,36,24.30
2007,07,04,15,37,24.30
2007,07,04,15,38,24.40
2007,07,04,15,39,24.40
2007,07,04,15,40,24.50
2007,07,04,15,41,24.50
2007,07,04,15,42,24.60
2007,07,04,15,43,24.70
2007,07,04,15,44,24.80
2007,07,04,15,45,24.80
2007,07,04,15,46,24.90
2007,07,04,15,47,24.90
2007,07,04,15,48,24.90
2007,07,04,15,49,24.80
2007,07,04,15,50,24.70
2007,07,04,15,51,24.70
2007,07,04,15,52,24.60
2007,07,04,15,53,24.60
2007,07,04,15,54,24.50
2007,07,04,15,55,24.40
2007,07,04,15,56,24.30
2007,07,04,15,57,24.20
2007,07,04,15,58,24.10
2007,07,04,15,59,24.00
2007,07,04,16,00,23.90
2007,07,04,16,01,23.90
2007,07,04,16,02,23.90
2007,07,04,16,03,23.80
2007,07,04,16,04,23.80
2007,07,04,16,05,23.80
2007,07,04,16,06,23.70
2007,07,04,16,07,23.70
2007,07,04,16,08,23.70
2007,07,04,16,09,23.70
2007,07,04,16,10,23.80
2007,07,04,16,11,23.90
2007,07,04,16,12,23.90
2007,07,04,16,13,23.80
2007,07,04,16,14,23.80
2007,07,04,16,15,23.80
2007,07,04,16,16,23.90
2007,07,04,16,17,23.90
2007,07,04,16,18,23.90
2007,07,04,16,19,23.90
2007,07,04,16,20,23.90
2007,07,04,16,21,23.80
2007,07,04,16,22,23.80
2007,07,04,16,23,23.80
2007,07,04,16,24,23.80
2007,07,04,16,25,23.70
2007,07,04,16,26,23.80
2007,07,04,16,27,23.80
2007,07,04,16,28,23.80
2007,07,04,16,29,23.90
2007,07,04,16,30,23.90
2007,07,04,16,31,23.90
2007,07,04,16,32,23.90
2007,07,04,16,33,23.80
2007,07,04,16,34,23.80
2007,07,04,16,35,23.70
2007,07,04,16,36,23.70
2007,07,04,16,37,23.80
2007,07,04,16,38,23.90
2007,07,04,16,39,24.00
2007,07,04,16,40,24.10
2007,07,04,16,41,24.20
2007,07,04,16,42,24.20
2007,07,04,16,43,24.20
2007,07,04,16,44,24.30
2007,07,04,16,45,24.30
2007,07,04,16,46,24.40
2007,07,04,16,47,24.40
2007,07,04,16,48,24.40
2007,07,04,16,49,24.40
2007,07,04,16,50,24.30
2007,07,04,16,51,24.30
2007,07,04,16,52,24.30
2007,07,04,16,53,24.20
2007,07,04,16,54,24.20
2007,07,04,16,55,24.10
2007,07,04,16,56,24.10
2007,07,04,16,57,24.10
2007,07,04,16,58,24.10
2007,07,04,16,59,24.00
2007,07,04,17,00,24.00
2007,07,04,17,01,23.90
2007,07,04,17,02,23.80
2007,07,04,17,03,23.80
2007,07,04,17,04,23.80
2007,07,04,17,05,23.80
2007,07,04,17,06,23.70
2007,07,04,17,07,23.70
2007,07,04,17,08,23.70
2007,07,04,17,09,23.60
2007,07,04,17,10,23.50
2007,07,04,17,11,23.40
2007,07,04,17,12,23.40
2007,07,04,17,13,23.30
2007,07,04,17,14,23.30
2007,07,04,17,15,23.30
2007,07,04,17,16,23.30
2007,07,04,17,17,23.30
2007,07,04,17,18,23.30
2007,07,04,17,19,23.30